JA3VQW-13 Hirakata JP current weather conditions

sailwx.info

Wind from 270

Air temperature 15.0° C
Dewpoint 8.7° C

Last reported at 2014-Nov-28 14:29 UTC.
Time now 2014-Nov-28 15:50 UTC

Location: N 34°48' E 135°40'.
View on Google Maps.

See reports from other nearby stations

  
Tides and Currents Weather Stations Pressure Air Temp Water Temp Dewpoint Dewpoint Depression Visibility Wind Speed Wind Dir Waves Ship Positions
date/time (UTC)wind fromknots sea level pressurealtimeterstation pressurevisibilityair tempwater tempwave heightnotes
2014-Nov-28 14:29 270 15.0
2014-Nov-28 14:12 235 15.6
2014-Nov-28 13:59 270 15.6
2014-Nov-28 13:29 270 15.6
2014-Nov-28 12:59 270 15.6
2014-Nov-28 12:29 315 15.6
2014-Nov-28 11:59 315 16.1
2014-Nov-28 11:29 315 16.1
2014-Nov-28 10:59 315 16.1
2014-Nov-28 10:39 315 16.1
2014-Nov-28 10:09 315 16.1
2014-Nov-28 09:39 315 16.7
2014-Nov-28 09:09 315 16.7
2014-Nov-28 08:39 315 16.7
2014-Nov-28 08:09 315 17.8
2014-Nov-28 07:36 292 18.9
2014-Nov-28 07:11 292 20.6
2014-Nov-28 05:36 292 23.9
2014-Nov-28 05:06 292 25.0
2014-Nov-28 04:36 248 24.4
2014-Nov-28 04:06 248 21.7
2014-Nov-28 03:36 248 19.4
2014-Nov-28 03:06 248 19.4
2014-Nov-28 02:36 248 18.9
2014-Nov-28 02:06 248 19.4
2014-Nov-28 01:36 248 18.9
2014-Nov-28 01:26 270 17.8
2014-Nov-28 00:56 248 17.8
2014-Nov-28 00:26 180 16.1
2014-Nov-27 23:56 270 13.3
2014-Nov-27 23:26 225 11.1
2014-Nov-27 22:56 270 10.6
2014-Nov-27 22:26 180 8.9
2014-Nov-27 22:13 158 8.9
2014-Nov-27 21:56 217 8.9
2014-Nov-27 21:44 292 8.9
2014-Nov-27 21:26 270 8.9
2014-Nov-27 21:14 270 8.9
2014-Nov-27 20:44 248 8.9
2014-Nov-27 20:14 225 8.9
2014-Nov-27 19:44 225 8.9
2014-Nov-27 19:14 158 8.9
2014-Nov-27 18:44 158 8.9
2014-Nov-27 18:14 259 9.4
2014-Nov-27 17:44 225 8.9
2014-Nov-27 17:14 225 9.4
2014-Nov-27 16:44 225 9.4
2014-Nov-27 16:26 225 9.4
2014-Nov-27 16:14 270 9.4
2014-Nov-27 15:44 158 9.4
2014-Nov-27 15:14 158 9.4
2014-Nov-27 14:44 158 9.4
2014-Nov-27 14:14 158 9.4
2014-Nov-27 13:56 158 9.4
2014-Nov-27 13:44 158 10.0
2014-Nov-27 13:14 135 10.0
2014-Nov-27 12:39 135 10.6
2014-Nov-27 12:09 135 10.6
2014-Nov-27 11:39 135 11.7
2014-Nov-27 11:09 135 11.7
2014-Nov-27 10:39 135 12.2
2014-Nov-27 10:09 135 12.8
2014-Nov-27 09:39 135 13.3
2014-Nov-27 09:09 225 13.3
2014-Nov-27 08:39 225 14.4
2014-Nov-27 08:09 225 15.0
2014-Nov-27 07:48 225 16.1
2014-Nov-27 07:18 270 18.9
2014-Nov-27 06:42 270 21.1
2014-Nov-27 06:32 270 21.1
2014-Nov-27 06:02 248 22.2
2014-Nov-27 05:32 292 22.8
2014-Nov-27 05:02 288 22.2
2014-Nov-27 04:32 045 16.7
2014-Nov-27 04:02 045 16.7
2014-Nov-27 03:32 045 16.7
2014-Nov-27 03:02 045 16.7
2014-Nov-27 02:32 045 16.7
2014-Nov-27 02:02 045 16.7
2014-Nov-27 01:32 045 16.7
2014-Nov-27 01:02 045 16.7
2014-Nov-27 00:32 045 16.7
2014-Nov-27 00:02 045 16.7
2014-Nov-26 23:32 045 16.7
2014-Nov-26 23:11 045 16.7
2014-Nov-26 22:41 045 16.7
2014-Nov-26 22:10 045 16.7
2014-Nov-26 21:40 045 16.7
2014-Nov-26 21:10 045 16.7
2014-Nov-26 20:57 045 16.7
2014-Nov-26 20:40 045 16.7
2014-Nov-26 20:10 045 16.7
2014-Nov-26 19:40 045 16.7
2014-Nov-26 19:10 090 16.7
2014-Nov-26 18:40 045 16.7
2014-Nov-26 18:10 045 16.7
2014-Nov-26 17:40 045 16.7
2014-Nov-26 17:10 045 16.7
2014-Nov-26 16:40 045 16.7
2014-Nov-26 16:12 045 16.7
2014-Nov-26 15:58 045 16.7
2014-Nov-26 15:40 045 16.7
2014-Nov-26 15:25 045 16.7
2014-Nov-26 15:11 045 16.7